Dewpoint
-6 -5 -3 -2 -2 -2 -2 1 3 3 3 2 3 4 1 0 -1 -0 4 5 5 4 4 4 5 5 5 5 5 5 4 1 1 3 2 3 3 4 6 6 11 13 13
-5 -5 -5 -4 -4 -2 -2 2 4 4 4 4 3 2 0 -1 -1 4 5 5 4 4 5 5 5 5 5 6 6 6 6 6 5 6 6 6 4 4 2 3 4 5 11
-4 -5 -4 -4 -4 -3 -2 -1 1 1 2 2 1 0 0 0 2 5 5 5 5 5 5 5 5 5 6 7 6 6 7 7 7 7 8 7 6 6 6 6 5 4 2
-4 -6 -5 -5 -4 -3 -1 0 0 1 1 1 0 1 1 2 3 5 5 5 5 4 5 3 4 5 5 6 6 6 6 6 7 7 8 8 8 8 8 7 8 8 8
-0 -0 -2 -5 -5 -2 -0 0 -0 1 0 0 -0 0 2 3 4 4 4 4 4 3 3 1 3 4 6 6 6 6 6 6 6 6 6 7 7 8 8 8 8 8 7
0 -0 0 1 1 0 -1 -0 1 1 1 2 2 2 3 3 4 4 4 3 4 3 -0 1 2 3 3 5 6 6 6 6 6 6 6 6 7 8 8 8 8 7 7
-10 -9 -5 -2 -1 -1 -1 -2 -0 -0 0 0 1 2 3 4 4 3 2 4 3 2 -0 -3 -3 0 -0 1 4 5 5 6 7 6 6 6 6 6 7 8 8 9 8
-9 -10 -10 -9 -9 -8 -7 -4 -3 -3 -2 -1 -1 0 1 1 1 0 0 1 1 -1 -1 -2 -3 -3 -2 -1 1 1 4 7 7 6 7 7 7 7 7 7 7 8 9
-8 -9 -9 -10 -10 -9 -9 -9 -8 -8 -7 -7 -7 -6 -4 -2 -1 -1 -0 -1 -1 -1 -0 -1 -1 -2 -3 -2 -0 -1 0 4 5 6 7 7 7 7 7 7 8 8 8
-5 -6 -5 -5 -5 -5 -5 -5 -5 -6 -6 -6 -7 -7 -7 -7 -7 -6 -4 -2 -2 -1 0 -0 -1 -1 -2 -2 -0 -0 0 1 4 6 6 7 7 7 7 7 7 7 8
-6 -6 -6 -6 -6 -5 -5 -6 -6 -6 -7 -7 -6 -5 -5 -6 -7 -7 -8 -7 -5 -3 -0 -0 -1 -1 -1 -2 -2 -1 -0 2 4 5 6 7 7 7 7 8 7 8 7
-6 -6 -5 -4 -5 -8 -7 -7 -7 -6 -6 -7 -7 -7 -6 -5 -4 -5 -8 -8 -7 -6 -4 -2 -1 -2 -2 -1 -2 -2 -0 3 4 4 4 4 4 4 6 8 7 8 7
-7 -5 -4 -5 -6 -8 -9 -10 -9 -8 -8 -8 -7 -7 -7 -6 -6 -4 -4 -7 -8 -7 -6 -4 -2 -1 -1 -1 -1 -0 -1 2 3 3 2 1 1 1 2 4 7 8 8
-3 -4 -7 -9 -9 -7 -6 -7 -9 -10 -10 -9 -7 -6 -6 -6 -7 -6 -4 -3 -4 -5 -4 -3 -1 -0 -0 -0 -0 -0 0 1 4 3 2 1 1 3 3 4 5 5 8
-4 -9 -9 -10 -8 -7 -6 -5 -7 -9 -9 -9 -8 -5 -5 -5 -6 -7 -6 -5 -3 -3 -4 -2 -1 -0 0 -1 -1 -1 0 0 2 3 2 0 1 3 4 5 5 6 8
-5 -7 -8 -8 -5 -4 -5 -5 -5 -5 -4 -5 -4 -4 -4 -5 -5 -4 -5 -5 -4 -2 -3 -3 -1 -0 -0 -1 -1 -2 0 -0 1 2 1 -1 1 4 5 6 6 6 7
-5 -6 -5 -5 -4 -4 -4 -4 -4 -2 -3 -3 -4 -5 -5 -5 -5 -4 -4 -4 -4 -3 -4 -3 -2 -1 -1 -1 -1 -0 -1 0 0 2 0 -1 3 4 5 6 6 6 7
-9 -9 -7 -5 -4 -4 -4 -6 -5 -4 -3 -3 -4 -4 -5 -5 -5 -5 -4 -3 -3 -3 -3 -4 -3 -2 -1 -1 -1 -0 -0 -1 0 0 -1 0 4 4 4 5 6 6 6
-9 -9 -5 -3 -4 -4 -4 -4 -2 -1 -3 -3 -4 -4 -3 -3 -4 -5 -6 -5 -3 -2 -3 -3 -3 -3 -2 -1 -0 -0 -0 -1 -0 -1 -2 -1 3 4 4 4 5 5 6
-5 -3 -4 -5 -6 -6 -4 -3 -2 -3 -6 -6 -6 -5 -3 -3 -3 -4 -5 -6 -5 -3 -2 -3 -3 -3 -2 -2 -0 -0 -0 -0 -1 -2 -2 -2 0 3 4 4 4 4 4
-3 -4 -6 -5 -8 -10 -8 -6 -5 -7 -11 -11 -10 -11 -4 -2 -2 -3 -3 -4 -4 -4 -3 -3 -3 -3 -2 -1 0 0 -1 -1 -1 -2 -3 -3 -2 -1 2 4 4 3 3
-5 -6 -7 -8 -9 -11 -19 -18 -16 -13 -17 -15 -14 -10 -4 -2 -2 -2 -2 -3 -3 -3 -3 -3 -3 -3 -2 -1 1 1 -0 -1 -2 -4 -4 -5 -4 -5 -3 3 3 3 3
-7 -7 -8 -10 -15 -19 -21 -20 -21 -20 -16 -13 -15 -10 -8 -2 -2 -2 -2 -2 -3 -3 -2 -2 -2 -2 -2 -1 0 1 0 -1 -2 -4 -5 -6 -7 -6 -5 -2 1 2 2
-11 -10 -10 -14 -15 -17 -17 -18 -18 -18 -17 -14 -14 -9 -8 -2 -2 -2 -2 -2 -2 -2 -3 -2 -2 -2 -2 -2 -0 1 1 -1 -2 -5 -7 -7 -9 -9 -10 -9 -5 -1 -1
-15 -14 -12 -13 -14 -16 -17 -17 -17 -16 -15 -13 -13 -11 -6 -3 -2 -2 -2 -2 -2 -2 -2 -2 -2 -1 -1 -1 -0 0 1 -0 -2 -5 -7 -8 -9 -10 -12 -13 -14 -15 -14
-16 -16 -17 -16 -17 -17 -17 -18 -17 -14 -12 -11 -11 -9 -7 -5 -3 -3 -3 -3 -3 -2 -2 -2 -2 -1 -0 0 0 1 1 1 -2 -5 -8 -9 -11 -12 -14 -16 -17 -18 -19
Wind_Speed
9 9 8 9 11 14 15 6 3 11 15 16 19 20 19 17 17 16 16 16 18 19 20 20 22 23 25 26 26 25 26 28 29 31 36 38 37 35 34 35 39 38 39
9 6 7 11 14 13 13 9 7 11 15 17 17 17 16 16 16 16 16 18 19 18 18 20 20 22 23 24 25 26 28 28 26 27 28 26 32 36 39 38 39 42 41
12 9 8 9 12 13 13 11 8 9 12 12 13 15 16 17 17 16 16 16 18 18 18 19 21 19 20 20 20 21 22 27 29 25 20 10 13 19 22 23 25 29 33
13 10 10 11 12 11 11 13 12 11 11 13 14 16 18 19 18 18 18 18 18 21 18 19 16 16 14 15 16 18 19 20 26 28 29 29 31 29 21 23 19 17 22
12 13 11 9 9 11 11 12 13 15 15 16 16 17 19 20 19 20 21 19 19 16 13 15 14 14 14 15 15 17 18 19 20 24 30 32 33 33 34 34 30 32 34
11 12 11 11 10 10 12 14 15 14 16 17 17 18 18 18 19 19 20 19 19 17 16 17 14 13 13 14 14 15 18 19 21 22 24 29 31 25 27 32 33 38 42
10 11 10 11 11 12 12 12 14 15 14 15 17 17 18 18 19 19 19 19 18 18 17 18 18 16 15 16 16 16 16 18 22 23 25 26 29 36 40 38 34 37 40
12 12 11 11 11 12 12 11 11 14 14 16 17 18 19 20 21 21 21 21 21 20 20 21 20 18 18 18 16 17 18 20 23 23 25 27 28 28 32 38 38 37 34
14 14 15 15 15 15 14 13 12 12 13 14 15 17 19 21 22 23 23 24 24 24 23 23 23 23 21 19 19 20 20 20 20 23 22 26 27 29 31 33 35 37 35
9 12 15 16 15 15 15 15 16 17 16 15 15 16 17 18 19 21 24 25 26 25 26 26 25 25 24 21 21 22 21 20 19 19 20 23 25 28 29 32 36 39 41
0 9 16 20 18 16 17 17 17 17 19 18 18 18 18 18 19 21 22 23 24 25 27 27 27 27 26 23 24 23 23 22 20 17 20 24 26 30 30 33 34 38 40
1 5 10 20 23 24 23 23 22 21 22 21 21 21 21 20 21 21 22 21 23 23 26 27 28 27 26 24 26 25 23 23 22 21 22 23 26 28 31 32 35 38 42
2 8 17 22 25 25 24 25 25 26 27 27 26 25 22 22 22 23 23 22 22 22 23 26 27 26 26 27 27 28 26 25 24 23 22 24 27 28 29 33 34 37 39
7 14 22 26 29 28 27 29 28 26 27 29 29 28 26 25 24 24 24 24 23 23 22 24 25 26 27 29 28 28 28 27 25 25 25 27 28 30 31 30 31 36 38
15 22 27 29 29 29 31 33 33 31 30 30 30 30 29 28 28 26 26 25 25 24 24 24 25 26 28 29 29 27 28 27 27 26 26 26 28 30 30 30 32 32 34
22 26 30 30 28 29 33 36 37 35 34 33 34 33 32 30 29 28 27 26 25 24 25 26 26 27 28 29 29 28 27 28 27 27 26 26 27 29 25 24 26 27 31
25 28 29 30 30 32 35 38 39 39 40 38 36 35 34 32 31 30 28 27 27 26 25 26 27 28 29 29 29 28 28 26 26 25 25 24 24 24 23 21 24 24 26
26 28 31 33 33 34 35 38 39 40 38 37 36 35 36 36 36 36 34 30 27 26 29 30 29 28 29 28 28 28 29 26 25 24 22 21 20 21 20 20 22 24 25
28 31 30 32 33 32 32 31 29 30 33 32 33 34 35 37 37 37 37 37 34 30 29 29 30 30 29 27 27 27 29 27 25 23 21 20 18 18 20 15 14 19 21
26 29 31 30 32 29 29 27 29 30 29 31 33 35 35 34 36 36 36 36 36 33 30 29 29 30 29 28 26 28 28 29 26 23 22 21 20 18 17 14 9 9 11
27 27 27 26 28 28 29 29 31 30 31 31 33 37 36 32 32 34 34 34 34 33 31 29 28 29 28 27 27 28 29 29 26 25 23 22 21 19 16 14 8 4 4
24 23 24 26 28 29 30 31 31 30 31 32 33 35 38 34 33 33 33 31 30 30 29 28 28 28 27 27 27 28 29 27 27 25 23 22 21 19 16 12 9 5 4
22 22 24 28 29 28 30 32 32 31 31 33 34 33 37 34 35 35 33 32 31 31 30 28 29 29 26 25 26 27 28 28 27 25 23 22 20 18 17 15 13 12 10
24 24 28 29 29 30 32 32 31 32 33 34 35 35 36 32 33 33 34 33 32 30 31 30 29 28 28 25 22 27 27 27 27 25 24 22 20 18 16 15 14 16 15
27 26 28 30 31 32 33 33 33 32 33 35 36 35 36 32 34 36 36 35 35 29 29 31 31 30 30 27 20 22 26 27 26 24 24 24 20 18 16 15 13 12 11
28 29 31 31 33 35 35 34 33 34 34 36 36 36 38 34 33 37 41 36 33 33 27 26 28 30 30 28 22 19 23 25 25 26 26 24 20 18 15 14 12 10 9
Wind_Direction
341 342 345 331 323 320 329 330 286 219 226 250 251 258 256 258 263 270 273 275 279 281 281 279 278 277 274 272 268 265 262 255 253 262 262 263 263 263 261 259 254 255 255
332 314 313 316 320 316 327 307 266 242 253 261 262 257 260 265 271 274 277 280 281 282 281 281 282 285 278 267 267 265 264 263 257 260 266 278 272 264 263 264 262 259 256
334 321 309 312 310 308 318 308 281 271 271 264 261 265 269 271 274 278 279 277 280 280 282 286 284 294 281 278 280 278 271 268 260 255 257 271 262 280 275 272 269 264 263
4 344 318 296 301 307 296 317 298 286 282 275 274 276 277 278 278 279 280 283 287 291 279 285 281 288 294 285 284 280 277 272 269 266 255 256 259 274 289 274 271 266 262
354 357 358 342 308 300 300 303 307 300 293 284 283 282 283 284 283 280 283 286 289 302 295 299 293 290 293 289 280 283 278 272 272 269 265 261 263 262 266 272 271 271 261
341 346 345 345 345 333 318 309 305 304 299 293 290 287 287 288 285 283 282 284 285 291 300 303 303 304 306 299 290 278 279 278 273 272 271 267 262 267 263 269 272 270 271
354 349 336 334 337 335 331 325 317 314 313 306 300 298 297 293 289 290 289 284 285 287 293 301 301 299 303 302 296 284 276 276 276 275 272 270 268 263 263 267 272 272 274
23 18 8 3 353 343 329 324 334 330 324 314 309 303 298 297 295 295 291 287 286 288 290 295 299 298 299 300 299 299 288 279 272 273 274 272 271 269 267 265 268 273 273
42 44 39 35 29 21 15 6 352 345 338 332 326 315 303 296 294 291 287 285 285 286 286 288 292 298 296 294 297 300 300 292 289 277 275 275 273 272 270 270 267 268 271
39 51 44 37 33 26 20 16 8 1 357 348 339 324 316 313 305 296 289 285 283 282 282 283 286 291 295 291 288 291 294 295 295 279 279 280 276 277 274 269 268 267 267
359 62 51 38 26 13 7 1 355 350 343 337 330 324 322 317 310 306 304 299 290 282 279 280 282 286 290 294 286 288 292 291 288 284 276 276 280 278 277 273 273 271 269
213 79 23 12 13 8 0 357 353 348 344 337 331 325 320 315 312 310 306 300 294 288 280 276 277 280 285 291 285 285 286 284 285 285 278 278 274 272 273 280 275 272 271
0 25 6 2 1 358 353 347 342 339 336 334 331 328 322 318 311 309 305 302 294 291 283 274 272 276 281 285 284 283 284 281 281 284 286 292 294 291 283 267 267 275 269
43 8 358 355 354 351 347 343 338 334 330 327 328 328 323 317 314 309 306 304 300 291 286 275 272 274 279 281 282 278 280 280 280 283 288 294 297 296 295 286 275 261 271
7 0 357 353 350 343 339 337 335 330 327 323 322 324 323 319 312 308 303 300 298 294 290 284 278 277 279 279 282 278 277 279 281 284 289 295 296 296 293 281 280 264 261
356 351 347 345 341 335 329 329 327 325 324 320 318 317 318 316 314 311 306 301 297 294 290 285 284 283 282 280 280 283 273 279 281 284 290 295 299 302 289 277 277 262 254
344 338 336 335 330 326 325 323 322 321 321 319 317 316 314 311 308 307 306 306 301 294 292 290 285 282 282 280 279 279 280 274 279 283 289 295 307 311 295 280 269 263 260
333 330 325 320 316 314 314 314 313 314 317 318 319 317 314 311 308 306 304 303 303 299 295 288 287 281 278 278 277 276 279 272 276 280 284 291 304 322 312 290 272 265 263
320 318 314 314 316 319 320 322 320 319 322 320 320 316 315 314 312 309 306 303 303 297 292 293 287 281 275 274 275 273 275 274 274 276 277 283 290 306 320 315 290 271 265
308 308 312 315 320 324 324 324 319 317 323 323 318 321 316 312 314 311 309 306 301 298 293 288 289 284 274 270 269 268 270 270 270 270 272 275 281 288 300 309 310 294 281
305 308 313 314 319 320 320 318 318 321 325 322 319 320 320 316 315 315 310 308 306 299 293 287 285 289 276 267 269 267 267 267 267 266 266 270 275 279 283 290 292 312 321
310 315 314 316 315 317 321 321 319 320 325 320 320 325 325 321 321 317 315 310 307 301 292 288 284 286 284 267 264 266 267 265 262 263 265 267 270 274 272 269 270 272 271
314 316 317 318 317 317 320 321 325 327 324 322 321 321 325 321 323 320 319 315 308 303 299 293 288 288 287 276 262 264 265 261 260 261 260 261 265 267 265 257 254 259 253
322 319 317 317 314 316 316 316 321 324 323 322 320 319 323 322 309 314 315 315 312 302 300 294 291 291 291 279 264 257 258 258 256 256 254 256 256 255 254 254 249 248 250
316 317 315 318 317 319 315 315 319 322 321 319 318 319 318 314 308 314 316 310 309 304 295 289 287 286 288 283 278 259 255 259 257 252 248 249 249 244 247 246 243 243 241
319 318 317 318 321 320 319 320 322 323 320 316 316 318 316 313 306 318 322 318 312 307 298 279 274 275 279 282 273 259 256 248 247 244 243 241 239 238 238 239 235 228 225
Height
1497 1496 1496 1495 1493 1492 1490 1487 1488 1490 1492 1492 1493 1493 1494 1495 1495 1494 1494 1494 1493 1492 1491 1489 1489 1488 1487 1487 1487 1486 1486 1486 1488 1487 1486 1486 1486 1487 1488 1489 1491 1491 1493
1496 1496 1496 1494 1494 1493 1491 1490 1489 1491 1492 1492 1492 1492 1492 1492 1492 1491 1491 1491 1490 1488 1487 1485 1484 1482 1480 1480 1480 1480 1480 1480 1483 1482 1482 1478 1478 1478 1480 1481 1482 1483 1485
1496 1494 1494 1493 1493 1493 1492 1491 1490 1490 1491 1491 1490 1490 1489 1489 1489 1489 1488 1487 1486 1485 1483 1482 1480 1477 1475 1474 1475 1475 1474 1474 1475 1478 1480 1477 1473 1472 1473 1473 1474 1475 1475
1495 1494 1493 1492 1492 1492 1492 1491 1490 1490 1489 1488 1488 1488 1487 1486 1485 1485 1484 1483 1482 1480 1479 1477 1475 1473 1471 1470 1470 1470 1470 1469 1469 1471 1472 1472 1473 1472 1467 1468 1469 1469 1470
1496 1494 1493 1492 1490 1490 1490 1490 1489 1488 1488 1487 1486 1485 1484 1483 1482 1482 1481 1480 1478 1477 1475 1473 1471 1469 1467 1466 1466 1466 1465 1465 1464 1464 1465 1466 1466 1467 1466 1460 1461 1463 1464
1496 1494 1493 1492 1490 1489 1488 1488 1487 1487 1486 1485 1483 1482 1481 1480 1479 1478 1477 1476 1475 1474 1472 1470 1468 1466 1464 1463 1461 1461 1460 1460 1460 1460 1459 1459 1459 1459 1460 1457 1455 1454 1454
1495 1493 1491 1490 1489 1488 1487 1486 1485 1484 1483 1482 1481 1479 1478 1477 1475 1474 1473 1472 1471 1470 1468 1467 1465 1462 1460 1459 1457 1456 1455 1454 1454 1454 1453 1453 1452 1452 1452 1451 1449 1446 1446
1495 1493 1491 1489 1488 1486 1484 1483 1482 1481 1480 1479 1477 1476 1475 1473 1472 1471 1469 1468 1466 1465 1464 1462 1460 1458 1457 1455 1453 1451 1449 1449 1447 1447 1446 1446 1445 1445 1445 1444 1444 1440 1438
1495 1493 1492 1490 1488 1486 1484 1482 1480 1478 1477 1475 1474 1472 1470 1469 1467 1466 1465 1463 1462 1461 1460 1458 1456 1454 1452 1450 1449 1447 1444 1442 1440 1440 1439 1439 1438 1437 1438 1437 1437 1434 1429
1498 1495 1492 1490 1488 1487 1485 1483 1480 1477 1475 1472 1470 1468 1466 1464 1462 1460 1459 1457 1456 1455 1453 1452 1450 1448 1447 1445 1443 1441 1440 1437 1435 1434 1433 1432 1431 1430 1430 1429 1428 1427 1424
1496 1495 1493 1490 1488 1486 1484 1482 1479 1476 1473 1469 1466 1463 1461 1459 1456 1454 1452 1450 1448 1447 1445 1445 1443 1442 1440 1439 1437 1435 1434 1431 1430 1429 1428 1426 1425 1424 1422 1421 1419 1417 1416
1495 1493 1491 1489 1486 1484 1481 1479 1477 1474 1471 1467 1463 1460 1457 1454 1450 1448 1445 1443 1441 1439 1437 1437 1436 1435 1434 1433 1431 1429 1428 1426 1425 1423 1421 1420 1419 1417 1414 1412 1410 1408 1406
1494 1493 1490 1487 1484 1482 1479 1476 1473 1470 1467 1463 1459 1456 1452 1449 1445 1442 1439 1437 1434 1432 1430 1429 1428 1428 1428 1426 1424 1423 1421 1420 1418 1417 1414 1413 1410 1407 1405 1403 1401 1399 1399
1491 1489 1487 1485 1482 1480 1477 1473 1469 1466 1462 1458 1454 1451 1447 1443 1440 1436 1433 1430 1427 1425 1423 1422 1421 1420 1420 1418 1417 1416 1414 1413 1411 1410 1408 1405 1402 1398 1395 1392 1390 1390 1389
1490 1487 1484 1481 1478 1475 1472 1468 1465 1461 1457 1453 1448 1445 1441 1437 1433 1429 1426 1423 1420 1418 1416 1414 1413 1413 1411 1410 1409 1408 1406 1405 1404 1402 1400 1397 1394 1391 1386 1383 1381 1381 1381
1486 1483 1481 1478 1475 1471 1467 1463 1459 1455 1452 1447 1443 1438 1434 1431 1426 1423 1419 1416 1413 1410 1408 1407 1405 1405 1404 1402 1402 1400 1399 1397 1395 1394 1392 1390 1386 1381 1377 1375 1374 1373 1373
1484 1481 1478 1474 1471 1467 1462 1457 1453 1449 1444 1440 1435 1432 1428 1423 1419 1416 1412 1409 1406 1403 1401 1399 1397 1396 1395 1395 1394 1393 1391 1390 1388 1386 1385 1383 1379 1374 1370 1368 1367 1366 1366
1480 1477 1474 1470 1466 1463 1458 1453 1448 1443 1439 1434 1429 1424 1420 1416 1411 1407 1403 1401 1399 1396 1393 1390 1389 1387 1386 1387 1386 1386 1384 1382 1381 1380 1378 1376 1374 1370 1365 1361 1360 1359 1358
1477 1473 1469 1464 1460 1456 1451 1446 1442 1439 1434 1429 1423 1419 1414 1408 1403 1399 1395 1391 1389 1387 1384 1382 1380 1378 1377 1378 1378 1378 1376 1375 1374 1374 1373 1371 1370 1367 1363 1358 1355 1354 1353
1471 1466 1462 1459 1454 1449 1445 1440 1437 1433 1428 1423 1417 1412 1407 1402 1396 1391 1386 1383 1380 1377 1376 1373 1371 1369 1368 1369 1369 1369 1369 1368 1368 1368 1367 1366 1365 1363 1361 1358 1354 1352 1351
1463 1459 1456 1452 1448 1444 1440 1435 1431 1427 1422 1417 1411 1405 1400 1394 1389 1384 1379 1375 1371 1367 1366 1364 1362 1361 1360 1359 1361 1361 1361 1361 1361 1361 1361 1361 1360 1359 1358 1356 1353 1351 1350
1457 1454 1450 1446 1443 1439 1434 1429 1424 1420 1415 1410 1404 1398 1392 1386 1382 1377 1371 1367 1364 1359 1356 1354 1352 1351 1351 1351 1352 1353 1353 1355 1354 1355 1356 1355 1355 1354 1353 1353 1352 1350 1350
1451 1448 1445 1440 1436 1432 1428 1423 1418 1413 1408 1403 1397 1392 1387 1380 1375 1370 1364 1359 1356 1352 1348 1346 1343 1342 1342 1342 1343 1345 1346 1348 1348 1349 1349 1349 1349 1349 1348 1348 1349 1349 1348
1445 1442 1438 1434 1430 1426 1421 1417 1413 1408 1402 1396 1390 1386 1381 1375 1370 1364 1359 1354 1348 1344 1341 1338 1336 1334 1333 1333 1335 1336 1338 1340 1341 1343 1343 1344 1344 1344 1344 1344 1344 1345 1345
1438 1436 1433 1429 1424 1420 1414 1410 1406 1401 1395 1389 1383 1378 1373 1369 1362 1358 1353 1347 1342 1339 1334 1331 1329 1327 1325 1325 1327 1328 1330 1333 1335 1337 1337 1338 1339 1339 1339 1340 1340 1341 1342
1432 1429 1425 1422 1416 1412 1407 1403 1399 1394 1389 1382 1376 1371 1366 1361 1355 1349 1340 1339 1334 1329 1325 1322 1321 1318 1318 1318 1319 1321 1323 1325 1329 1329 1331 1333 1334 1335 1336 1337 1337 1338 1339